OBJECT D, 49318

Orbit data source: Space-Track

You're viewing an Uncataloged Satellite

Recently launched and/or uncataloged satellites may have evolving metadata. Metadata may include but not limited to: Owner, Maufacturer, Bus, Motor, and Mission.

OBJECT D, 49318 is a satellite owned by SISE (CN) in SSO that was launched on Thu, 14 Oct 2021 UTC via a CHANG ZHENG 2D launch vehicle from the Taiyaun Space Center, China (TSC). Unknown objects in Earth's orbit typically refer to objects detected orbiting the Earth but have not yet been identified or cataloged. These objects could be anything from previously untracked satellites, spent rocket stages, debris from satellite collisions, or even natural meteoroids temporarily captured by Earth's gravity.

Loading next visibility...
Identifier
49318, 2021-091D
Orbit
SSO
Country
Flag of CNCN / PRC
Related business
Manufacturer
Lizheng Sat
Mission
Commercial Communications
Bus & Motor
JTSY, Unknown motor
Mass
103 kg wet, 103 kg dry
Launch date (UTC)
2021-10-14 (4 years ago)
Launch vehicle
CHANG ZHENG 2D
Launch site
Taiyaun Space Center, China (TSC)
Object type
Unknown
Shape & HBR
Box, 0.5 m
Radar Cross Section
0.625 m², Medium (>0.1 m² and < 1m²)

Expand to show TLE details & history
Last TLE update: 6 hours ago

TLE from 6 hours ago
0 OBJECT D
1 49318U 21091D   25347.03633566  .00000573  00000-0  41018-3 0  9993
2 49318  97.4801  48.8497 0012963 144.1109 216.0933 14.00096443222031
Epoch: 2025-12-13T00:52Z
TLE epoch observation values (Epoch: 2025-12-13T00:52:19.401Z)
Latitude
-0.00002°
Longitude
-46.20051°
Altitude
904.007 km
Speed
7.396 km/s
True Right ascension
03h 15m 23s
True Declination
0° 00' 00"
Sunlit
Object was in full shadow at epoch
Visualization orbit readout
Latitude
Unknown
Longitude
Unknown
Altitude
Unknown
Speed
Unknown
Apparent Right ascension
Unknown
Apparent Declination
Unknown
Sunlit
N/A
Visualization observer readout
Local Sidereal Time
05:23:58
Azimuth
Unknown
Elevation
Unknown
Doppler factor
Unknown
Orbital elements
Apogee altitude
900.015 km
Perigee altitude
881.17 km
Semi-major axis
7,268.729 km
Eccentricity
0.0013
Inclination
97.4801°
RAAN
48.8497°
Arg. of periapsis
144.1109°
True anomaly
216.00591°
Mean anomaly
216.0933°
Eccentric anomaly
216.04959°
Mean motion
3.50232 °/min
Orbital period
102.79 mins
BSTAR
0.00041018
Loading maneuver chart data...
Computing Atmospheric mass density...
Loading historical data...
Loading historical data...
Loading historical data...
Loading historical data...
Loading historical data...
Loading historical data...
Loading historical data...

Documentation

Showing up to 5 results
|